Location: Killam
(52.7910°N, 111.8608°W)
Time: 16:27:18
(UTC+00:00)

BUGSAT 1 - Visible Passes

Search period start: 14 March 2026 00:00
Search period end: 24 March 2026 00:00
Orbit: 502 x 543 km, 98.0° (Epoch: 14 March)

Date Brightness Start Highest point End Pass type
(mag) Time Alt. Az. Time Alt. Az. Time Alt. Az.
14 Mar ? 05:01:43 11° N 05:01:43 11° N 05:01:54 10° N visible
15 Mar ? 04:48:40 11° NNE 04:48:40 11° NNE 04:48:48 10° NNE visible
16 Mar ? 06:10:44 11° NNW 06:10:44 11° NNW 06:10:52 10° NNW visible
17 Mar ? 05:57:40 12° NNW 05:57:40 12° NNW 05:58:01 10° NNW visible
18 Mar ? 05:44:34 14° N 05:44:34 14° N 05:45:06 10° N visible
19 Mar ? 05:31:28 14° N 05:31:28 14° N 05:32:08 10° N visible
20 Mar ? 05:18:21 15° N 05:18:21 15° N 05:19:07 10° N visible
21 Mar ? 05:05:14 14° NNE 05:05:14 14° NNE 05:06:00 10° N visible
21 Mar ? 06:40:21 11° NNW 06:40:21 11° NNW 06:40:27 10° NNW visible
22 Mar ? 04:52:05 13° NNE 04:52:05 13° NNE 04:52:49 10° NNE visible
22 Mar ? 06:27:13 13° NNW 06:27:13 13° NNW 06:27:38 10° NNW visible
23 Mar ? 04:38:56 12° NNE 04:38:56 12° NNE 04:39:30 10° NNE visible
23 Mar ? 06:14:04 15° NNW 06:14:04 15° NNW 06:14:46 10° NNW visible
